• Em Portugal
  • Lista de países
  • Para 7 dias
  • Temperatura da água
  • Mapas de satélite
  • Mapa do tempo
  • Widgets de tempo
  • user-avatar
    Iniciar Sessão

    Previsão horária em Djelfa

    Hoje, 16 Dezembro, Sábado

    Tempo Temperatura Precipitação Vento Pressão Humidade
    00:00 +5°C° 0 mm 7 m/s 660 mmHg 87%
    01:00 +5°C° 0 mm 7 m/s 660 mmHg 87%
    02:00 +5°C° 0 mm 7 m/s 659 mmHg 86%
    03:00 +5°C° 0 mm 8 m/s 659 mmHg 86%
    04:00 +5°C° 0 mm 7 m/s 659 mmHg 87%
    05:00 +5°C° 0 mm 7 m/s 659 mmHg 88%
    06:00 +5°C° 0 mm 7 m/s 659 mmHg 90%
    07:00 +6°C° 0,1 mm 7 m/s 660 mmHg 89%
    08:00 +6°C° 0,1 mm 7 m/s 660 mmHg 87%
    09:00 +8°C° 0,1 mm 6 m/s 661 mmHg 85%
    10:00 +8°C° 0,1 mm 6 m/s 661 mmHg 82%
    11:00 +8°C° 0,1 mm 6 m/s 661 mmHg 78%
    12:00 +8°C° 0,1 mm 5 m/s 661 mmHg 74%
    13:00 +8°C° 0 mm 5 m/s 661 mmHg 71%
    14:00 +8°C° 0 mm 6 m/s 661 mmHg 67%
    15:00 +8°C° 0 mm 6 m/s 662 mmHg 64%
    16:00 +7°C° 0 mm 5 m/s 662 mmHg 66%
    17:00 +6°C° 0 mm 5 m/s 662 mmHg 69%
    18:00 +5°C° 0 mm 4 m/s 663 mmHg 72%
    19:00 +5°C° 0 mm 4 m/s 663 mmHg 74%
    20:00 +4°C° 0 mm 4 m/s 663 mmHg 77%
    21:00 +3°C° 0 mm 4 m/s 664 mmHg 79%
    22:00 +3°C° 0 mm 3 m/s 664 mmHg 81%
    23:00 +2°C° 0 mm 3 m/s 664 mmHg 83%

    Amanhã, 17 Dezembro, Domingo

    Tempo Temperatura Precipitação Vento Pressão Humidade
    00:00 +1°C° 0 mm 3 m/s 664 mmHg 85%
    01:00 +1°C° 0 mm 3 m/s 664 mmHg 85%
    02:00 +1°C° 0 mm 3 m/s 664 mmHg 85%
    03:00 0°C° 0 mm 3 m/s 664 mmHg 86%
    04:00 0°C° 0 mm 3 m/s 665 mmHg 87%
    05:00 0°C° 0 mm 3 m/s 665 mmHg 88%
    06:00 -1°C° 0 mm 3 m/s 665 mmHg 89%
    07:00 0°C° 0 mm 3 m/s 666 mmHg 84%
    08:00 +1°C° 0 mm 3 m/s 666 mmHg 80%
    09:00 +2°C° 0 mm 3 m/s 667 mmHg 75%
    10:00 +3°C° 0 mm 4 m/s 667 mmHg 70%
    11:00 +4°C° 0 mm 4 m/s 667 mmHg 64%
    12:00 +5°C° 0 mm 4 m/s 667 mmHg 58%
    13:00 +5°C° 0 mm 4 m/s 667 mmHg 58%
    14:00 +5°C° 0 mm 4 m/s 667 mmHg 59%
    15:00 +5°C° 0 mm 4 m/s 667 mmHg 59%
    16:00 +5°C° 0 mm 4 m/s 667 mmHg 62%
    17:00 +4°C° 0 mm 4 m/s 668 mmHg 66%
    18:00 +4°C° 0 mm 4 m/s 668 mmHg 69%
    19:00 +3°C° 0 mm 4 m/s 668 mmHg 73%
    20:00 +1°C° 0 mm 4 m/s 669 mmHg 78%
    21:00 +2°C° 0 mm 3 m/s 669 mmHg 82%
    22:00 +1°C° 0 mm 3 m/s 669 mmHg 84%
    23:00 +1°C° 0 mm 3 m/s 669 mmHg 87%

    Depois de amanhã, 18 Dezembro, Segunda-feira

    Tempo Temperatura Precipitação Vento Pressão Humidade
    00:00 0°C° 0 mm 3 m/s 669 mmHg 89%
    01:00 +1°C° 0 mm 2 m/s 669 mmHg 90%
    02:00 +1°C° 0 mm 2 m/s 669 mmHg 92%
    03:00 -1°C° 0 mm 2 m/s 669 mmHg 94%
    04:00 -1°C° 0 mm 2 m/s 669 mmHg 94%
    05:00 -1°C° 0 mm 2 m/s 669 mmHg 94%
    06:00 -1°C° 0 mm 2 m/s 669 mmHg 94%
    07:00 -1°C° 0 mm 2 m/s 670 mmHg 88%
    08:00 +1°C° 0 mm 2 m/s 670 mmHg 83%
    09:00 +2°C° 0 mm 2 m/s 671 mmHg 77%
    10:00 +2°C° 0 mm 3 m/s 671 mmHg 67%
    11:00 +3°C° 0 mm 3 m/s 671 mmHg 57%
    12:00 +5°C° 0 mm 3 m/s 671 mmHg 47%
    13:00 +5°C° 0 mm 3 m/s 670 mmHg 46%
    14:00 +5°C° 0 mm 4 m/s 670 mmHg 44%
    15:00 +5°C° 0 mm 4 m/s 670 mmHg 43%
    16:00 +4°C° 0 mm 4 m/s 670 mmHg 47%
    17:00 +3°C° 0 mm 3 m/s 670 mmHg 51%
    18:00 +2°C° 0 mm 3 m/s 669 mmHg 55%
    19:00 +2°C° 0 mm 3 m/s 670 mmHg 58%
    20:00 +2°C° 0 mm 2 m/s 670 mmHg 61%
    21:00 +2°C° 0 mm 2 m/s 670 mmHg 64%
    22:00 +1°C° 0 mm 2 m/s 669 mmHg 68%
    23:00 +1°C° 0 mm 2 m/s 669 mmHg 71%

    19 Dezembro, Terça-feira

    Tempo Temperatura Precipitação Vento Pressão Humidade
    00:00 -1°C° 0 mm 2 m/s 669 mmHg 75%
    01:00 -1°C° 0 mm 2 m/s 668 mmHg 75%
    02:00 -1°C° 0 mm 2 m/s 668 mmHg 76%
    03:00 -1°C° 0 mm 2 m/s 668 mmHg 77%
    04:00 -1°C° 0 mm 2 m/s 667 mmHg 75%
    05:00 -1°C° 0 mm 2 m/s 667 mmHg 74%
    06:00 -2°C° 0 mm 3 m/s 667 mmHg 73%
    07:00 0°C° 0 mm 3 m/s 668 mmHg 66%
    08:00 +1°C° 0 mm 3 m/s 668 mmHg 59%
    09:00 +2°C° 0 mm 3 m/s 669 mmHg 53%
    10:00 +3°C° 0 mm 4 m/s 669 mmHg 49%
    11:00 +4°C° 0 mm 4 m/s 668 mmHg 46%
    12:00 +5°C° 0 mm 5 m/s 668 mmHg 42%
    13:00 +5°C° 0,1 mm 5 m/s 668 mmHg 44%
    14:00 +4°C° 0,1 mm 6 m/s 668 mmHg 45%
    15:00 +4°C° 0,1 mm 6 m/s 667 mmHg 47%
    16:00 +3°C° 0 mm 6 m/s 667 mmHg 52%
    17:00 +2°C° 0 mm 6 m/s 667 mmHg 57%
    18:00 +2°C° 0 mm 6 m/s 667 mmHg 62%
    19:00 +1°C° 0 mm 6 m/s 667 mmHg 68%
    20:00 +1°C° 0 mm 6 m/s 668 mmHg 75%
    21:00 0°C° 0 mm 5 m/s 668 mmHg 82%
    22:00 0°C° 0,1 mm 5 m/s 668 mmHg 84%
    23:00 -1°C° 0,1 mm 6 m/s 668 mmHg 86%

    20 Dezembro, Quarta-feira

    Tempo Temperatura Precipitação Vento Pressão Humidade
    00:00 -1°C° 0,1 mm 6 m/s 668 mmHg 88%
    01:00 +1°C° 0,3 mm 5 m/s 668 mmHg 89%
    02:00 +1°C° 0,3 mm 5 m/s 668 mmHg 90%
    03:00 +1°C° 0,3 mm 4 m/s 668 mmHg 91%
    04:00 0°C° 0,2 mm 4 m/s 668 mmHg 92%
    05:00 0°C° 0,2 mm 4 m/s 668 mmHg 92%
    06:00 0°C° 0,2 mm 4 m/s 668 mmHg 93%
    07:00 0°C° 0 mm 4 m/s 669 mmHg 88%
    08:00 +1°C° 0 mm 4 m/s 669 mmHg 82%
    09:00 +1°C° 0 mm 5 m/s 670 mmHg 77%
    10:00 +2°C° 0 mm 5 m/s 670 mmHg 69%
    11:00 +5°C° 0 mm 5 m/s 670 mmHg 61%
    12:00 +6°C° 0 mm 5 m/s 671 mmHg 54%
    13:00 +5°C° 0 mm 6 m/s 671 mmHg 55%
    14:00 +5°C° 0 mm 6 m/s 670 mmHg 57%
    15:00 +5°C° 0 mm 7 m/s 670 mmHg 58%
    16:00 +4°C° 0 mm 6 m/s 671 mmHg 62%
    17:00 +3°C° 0 mm 6 m/s 671 mmHg 65%
    18:00 +3°C° 0 mm 5 m/s 671 mmHg 69%
    19:00 +2°C° 0 mm 5 m/s 671 mmHg 70%
    20:00 +2°C° 0 mm 5 m/s 672 mmHg 72%
    21:00 +1°C° 0 mm 4 m/s 672 mmHg 73%
    22:00 +1°C° 0 mm 4 m/s 672 mmHg 75%
    23:00 0°C° 0 mm 4 m/s 671 mmHg 77%

    21 Dezembro, Quinta-feira

    Tempo Temperatura Precipitação Vento Pressão Humidade
    00:00 0°C° 0 mm 4 m/s 671 mmHg 78%
    01:00 0°C° 0 mm 4 m/s 671 mmHg 80%
    02:00 0°C° 0 mm 4 m/s 671 mmHg 81%
    03:00 0°C° 0 mm 4 m/s 671 mmHg 82%
    04:00 0°C° 0 mm 4 m/s 671 mmHg 83%
    05:00 0°C° 0 mm 4 m/s 671 mmHg 83%
    06:00 0°C° 0 mm 4 m/s 671 mmHg 83%
    07:00 0°C° 0 mm 4 m/s 671 mmHg 78%
    08:00 +1°C° 0 mm 5 m/s 672 mmHg 73%
    09:00 +2°C° 0 mm 5 m/s 672 mmHg 68%
    10:00 +3°C° 0 mm 6 m/s 672 mmHg 62%
    11:00 +4°C° 0 mm 6 m/s 672 mmHg 56%
    12:00 +5°C° 0 mm 7 m/s 671 mmHg 49%
    13:00 +5°C° 0 mm 7 m/s 671 mmHg 48%
    14:00 +5°C° 0 mm 7 m/s 671 mmHg 46%
    15:00 +5°C° 0 mm 7 m/s 671 mmHg 45%
    16:00 +4°C° 0,2 mm 6 m/s 671 mmHg 48%
    17:00 +3°C° 0,2 mm 5 m/s 671 mmHg 51%
    18:00 +4°C° 0,2 mm 4 m/s 671 mmHg 55%
    19:00 +4°C° 0,4 mm 4 m/s 671 mmHg 57%
    20:00 +3°C° 0,4 mm 4 m/s 671 mmHg 59%
    21:00 +3°C° 0,4 mm 4 m/s 671 mmHg 61%
    22:00 +3°C° 0,3 mm 4 m/s 671 mmHg 64%
    23:00 +3°C° 0,3 mm 4 m/s 671 mmHg 67%
    Mostrar mais

    XHprof extension not loaded